AB5PM Weather Reports


time (UTC)temp
C
wind
direction
speed
KPH
gust
KPH
rain 1hr
cm
rain 24hr
cm
rain mn
cm
humidity
%
barometer
mb
20260509064512 21 251 0.0 9.7 0.00 1.17 0.00 86 1011.2
20260509063015 21 223 1.6 9.7 0.00 1.17 0.00 85 1010.9
20260509061524 21 223 4.8 9.7 0.00 1.17 0.00 84 1010.5
20260509060005 21 210 1.6 8.0 0.00 1.17 0.00 84 1010.4
20260509054509 21 176 1.6 11.3 0.00 1.17 0.00 83 1010.5
20260509053015 21 229 0.0 0.0 0.00 1.17 0.00 83 1011.2
20260509051522 21 229 0.0 4.8 0.00 1.17 0.00 83 1011.7
20260509050026 21 308 0.0 12.9 0.00 1.17 0.00 82 1012.0
20260509044506 21 15 0.0 4.8 0.00 1.17 1.17 81 1011.3
20260509043013 21 171 3.2 9.7 0.00 1.17 1.17 80 1010.6
20260509041519 21 137 1.6 8.0 0.00 1.17 1.17 80 1010.7
20260509040033 22 192 4.8 16.1 0.00 1.17 1.17 79 1010.0
20260509034527 22 183 6.4 14.5 0.00 1.17 1.17 78 1009.9
20260509033007 22 84 1.6 4.8 0.00 1.17 1.17 78 1011.1
20260509031524 22 119 0.0 0.0 0.00 1.17 1.17 77 1011.3
20260509030018 22 121 0.0 0.0 0.00 1.17 1.17 77 1011.1
20260509024524 22 121 0.0 0.0 0.00 1.17 1.17 77 1010.8
20260509023026 22 121 0.0 3.2 0.00 1.17 1.17 76 1010.5
20260509021513 22 140 0.0 9.7 0.00 1.17 1.17 76 1009.7
20260509020018 22 140 4.8 11.3 0.00 1.17 1.17 75 1009.3
20260509014535 22 142 1.6 9.7 0.00 1.17 1.17 74 1009.3
20260509013024 23 200 4.8 16.1 0.00 1.17 1.17 73 1009.1
20260509011509 23 145 0.0 8.0 0.00 1.17 1.17 72 1009.2
20260509010012 23 181 1.6 9.7 0.00 1.17 1.17 71 1009.3
20260509004520 23 207 0.0 6.4 0.00 1.17 1.17 70 1009.1
20260509003024 24 202 3.2 11.3 0.00 1.17 1.17 69 1008.8
20260509001530 24 186 1.6 12.9 0.00 1.17 1.17 68 1008.8
20260509000013 25 190 3.2 12.9 0.00 1.17 1.17 67 1008.8
20260508234517 25 182 3.2 17.7 0.00 1.17 1.17 66 1008.9
20260508233022 26 150 4.8 16.1 0.00 1.17 1.17 63 1009.0
20260508231526 27 158 4.8 16.1 0.00 1.17 1.17 62 1009.1
20260508230028 27 148 3.2 16.1 0.00 1.17 1.17 62 1009.1
20260508224516 27 126 3.2 11.3 0.00 1.17 1.17 61 1009.1
20260508223018 27 109 3.2 12.9 0.00 1.17 1.17 60 1009.2
20260508221524 27 102 1.6 11.3 0.00 1.17 1.17 60 1009.2
20260508214528 27 186 3.2 16.1 0.00 1.17 1.17 59 1009.1
20260508213017 27 111 4.8 16.1 0.00 1.17 1.17 59 1009.1
20260508211524 27 126 3.2 17.7 0.00 1.17 1.17 60 1009.3
20260508210028 27 196 3.2 16.1 0.00 1.17 1.17 60 1009.9
20260508204531 26 202 6.4 20.9 0.00 1.17 1.17 60 1010.7
20260508203028 27 217 4.8 14.5 0.00 1.17 1.17 59 1010.7
20260508201525 27 190 3.2 14.5 0.00 1.17 1.17 57 1010.8
20260508200026 27 199 4.8 19.3 0.00 1.17 1.17 55 1011.0
20260508194526 28 211 4.8 16.1 0.00 1.17 1.17 53 1011.2
20260508193028 28 208 4.8 12.9 0.00 1.17 1.17 53 1011.2
20260508191526 27 148 4.8 16.1 0.00 1.17 1.17 54 1011.3
20260508190024 27 171 4.8 14.5 0.00 1.17 1.17 54 1011.6
20260508184506 27 200 1.6 16.1 0.00 1.17 1.17 56 1011.7
20260508183010 27 292 1.6 11.3 0.00 1.17 1.17 56 1011.8
20260508181517 26 211 3.2 11.3 0.00 1.17 1.17 56 1012.2
20260508180021 26 186 3.2 12.9 0.00 1.17 1.17 58 1012.6
20260508174533 25 215 3.2 11.3 0.00 1.17 1.17 59 1012.5
20260508173009 24 199 1.6 16.1 0.00 1.17 1.17 61 1012.9
20260508171509 23 161 1.6 12.9 0.00 1.17 1.17 61 1013.2
20260508170018 23 186 4.8 16.1 0.00 1.17 1.17 63 1013.5
20260508164520 22 124 1.6 19.3 0.00 1.17 1.17 66 1013.8
20260508163035 21 161 1.6 12.9 0.00 1.17 1.17 70 1014.2
20260508160017 20 184 0.0 11.3 0.00 1.17 1.17 73 1014.6
20260508154518 20 150 1.6 8.0 0.00 1.17 1.17 76 1014.6
20260508153024 19 215 4.8 9.7 0.00 1.17 1.17 77 1014.9
20260508151525 18 201 3.2 11.3 0.00 1.17 1.17 79 1014.6
20260508150011 18 143 1.6 11.3 0.00 1.17 1.17 84 1014.9
20260508144519 17 192 1.6 8.0 0.00 1.17 1.17 86 1015.0
20260508143026 17 161 1.6 9.7 0.00 1.17 1.17 88 1015.1
20260508141524 16 199 0.0 6.4 0.00 1.17 1.17 91 1015.0
20260508133021 16 216 1.6 8.0 0.00 1.17 1.17 92 1015.3
20260508131522 16 117 0.0 12.9 0.00 1.17 1.17 92 1015.1
20260508130026 15 171 1.6 8.0 0.00 1.17 1.17 92 1014.8
20260508121531 15 158 0.0 0.0 0.48 1.17 1.17 90 1015.4
20260508120024 15 158 0.0 0.0 0.64 1.17 1.17 90 1015.3
20260508114523 15 158 0.0 4.8 0.66 1.17 1.17 89 1015.4
20260508110022 15 165 1.6 9.7 0.53 0.53 0.53 87 1015.0
20260508104526 16 178 0.0 6.4 0.51 0.51 0.51 87 1015.6
20260508103034 16 152 1.6 9.7 0.28 0.28 0.28 86 1015.2
20260508094524 16 156 0.0 4.8 0.00 0.00 0.00 84 1014.3
20260508093024 16 194 1.6 8.0 0.00 0.00 0.00 83 1014.3
20260508091532 16 155 0.0 3.2 0.00 0.00 0.00 81 1014.4
20260508090025 16 157 0.0 3.2 0.00 0.00 0.00 81 1014.6
20260508084522 16 184 0.0 1.6 0.00 0.00 0.00 81 1014.8
20260508083024 16 176 0.0 8.0 0.00 0.00 0.00 80 1015.2
20260508081554 16 183 4.8 11.3 0.00 0.00 0.00 80 1015.1
20260508080028 16 144 0.0 4.8 0.00 0.00 0.00 79 1015.4
20260508074522 16 179 0.0 4.8 0.00 0.00 0.00 80 1016.4
20260508073023 16 146 0.0 0.0 0.00 0.00 0.00 79 1016.0
20260508071537 16 151 0.0 0.0 0.00 0.00 0.00 79 1015.5